This demonstration page uses our WeatherBlox Daily Observations layout. Learn more.

Left ArrowRight Arrow

44.8408, -93.29828

Hourly Observations for December 6, 2017

Temp ( °F °C ) Dew Point ( °F °C ) Humidity (%) Winds ( mph kmh ) Pressure ( in mb ) Visibility ( mi km ) Precip ( " mm )
12:53 am 00:53 Clear 18 -7.8 10 -12.2 71 71 W 15 24 29.93 1014 10 16 0.00 0.00
1:53 am 01:53 Clear 18 -7.8 9 -12.8 68 68 W 13 20 29.94 1014 10 16 0.00 0.00
2:53 am 02:53 Clear 17 -8.3 9 -12.8 70 70 W 14 22 29.96 1015 10 16 0.00 0.00
3:53 am 03:53 Clear 17 -8.3 9 -12.8 70 70 W 18 30 29.96 1015 10 16 0.00 0.00
4:53 am 04:53 Clear 17 -8.3 9 -12.8 70 70 W 15 24 29.97 1015 10 16 0.00 0.00
5:53 am 05:53 Clear 16 -8.9 9 -12.8 74 74 WNW 13 20 29.99 1016 10 16 0.00 0.00
6:53 am 06:53 Clear 16 -8.9 10 -12.2 77 77 WNW 13 20 30.00 1016 10 16 0.00 0.00
7:53 am 07:53 Mostly Sunny 16 -8.9 10 -12.2 77 77 WNW 15 24 30.02 1017 10 16 0.00 0.00
8:53 am 08:53 Mostly Sunny 17 -8.3 10 -12.2 74 74 WNW 15 24 30.03 1017 10 16 0.00 0.00
9:53 am 09:53 Partly Cloudy 18 -7.8 11 -11.7 74 74 WNW 16 26 30.06 1018 10 16 0.00 0.00
10:01 am 10:01 Mostly Cloudy 18 -7.8 11 -11.7 74 74 NW 18 30 30.09 1019 10 16 0.00 0.00
10:53 am 10:53 Cloudy 19 -7.2 12 -11.1 74 74 NW 16 26 30.09 1019 10 16 0.00 0.00
11:53 am 11:53 Cloudy with Light Snow 19 -7.2 12 -11.1 74 74 NW 17 28 30.10 1019 9 14 0.00 0.03
12:53 pm 12:53 Cloudy with Light Snow 19 -7.2 12 -11.1 74 74 NW 17 28 30.09 1019 10 16 0.00 0.03
1:53 pm 13:53 Windy with Snow Likely 20 -6.7 12 -11.1 71 71 WNW 20 31 30.11 1020 8 13 0.00 0.03
2:16 pm 14:16 Windy with Snow Likely 19 -7.2 11 -11.7 71 71 NW 20 31 30.15 1021 8 13 0.00 0.03
2:34 pm 14:34 Windy with Snow Likely 18 -7.8 13 -10.6 81 81 NW 20 31 30.15 1021 3 4 0.00 0.03
2:37 pm 14:37 Windy with Snow Likely 18 -7.8 13 -10.6 81 81 NW 20 31 30.15 1021 2 3 0.00 0.03
2:40 pm 14:40 Cloudy with Light Snow 18 -7.8 13 -10.6 81 81 NW 18 30 30.15 1021 1 2 0.00 0.03
2:53 pm 14:53 Cloudy with Light Snow 17 -8.3 12 -11.1 80 80 NW 17 28 30.14 1021 2 3 0.00 0.03
3:38 pm 15:38 Windy with Snow Likely 16 -8.9 11 -11.7 80 80 NW 20 31 30.18 1022 4 6 0.00 0.03
3:53 pm 15:53 Cloudy with Light Snow 16 -8.9 11 -11.7 80 80 WNW 17 28 30.17 1022 5 8 0.00 0.03
4:32 pm 16:32 Cloudy with Light Snow 16 -8.9 12 -11.1 84 84 WNW 13 20 30.21 1023 3 4 0.00 0.03
4:38 pm 16:38 Cloudy with Light Snow 16 -8.9 12 -11.1 84 84 WNW 12 19 30.21 1023 2 3 0.00 0.03
4:51 pm 16:51 Cloudy with Light Snow 16 -9 12 -11 86 86 NW 13 20 30.21 1023 3 5 0.00 0.03
4:53 pm 16:53 Cloudy with Light Snow 16 -8.9 12 -11.1 84 84 WNW 14 22 30.19 1022 4 6 0.00 0.03
5:05 pm 17:05 Cloudy with Light Snow 16 -8.9 13 -10.6 88 88 NW 13 20 30.21 1023 5 8 0.01 0.25
5:53 pm 17:53 Cloudy with Light Snow 17 -8.3 13 -10.6 84 84 NW 15 24 30.20 1023 5 8 0.01 0.25
6:53 pm 18:53 Cloudy with Light Snow 18 -7.8 14 -10 84 84 NW 16 26 30.22 1023 5 8 0.00 0.03
7:01 pm 19:01 Cloudy with Light Snow 18 -7.8 14 -10 84 84 NW 16 26 30.24 1024 4 6 0.00 0.03
7:10 pm 19:10 Windy with Snow Likely 18 -7.8 13 -10.6 81 81 NW 21 33 30.24 1024 4 6 0.00 0.03
7:53 pm 19:53 Cloudy 18 -7.8 12 -11.1 77 77 NNW 21 33 30.23 1024 10 16 0.00 0.03
8:53 pm 20:53 Cloudy 18 -7.8 9 -12.8 68 68 NW 14 22 30.24 1024 9 14 0.00 0.00
9:53 pm 21:53 Cloudy 18 -7.8 8 -13.3 65 65 NW 13 20 30.25 1024 10 16 0.00 0.00
10:53 pm 22:53 Cloudy 18 -7.8 8 -13.3 65 65 NW 13 20 30.26 1025 10 16 0.00 0.00
11:53 pm 23:53 Cloudy 16 -8.9 7 -13.9 67 67 NW 12 19 30.28 1025 10 16 0.00 0.00

Powered by AerisWeather